Location: Buch
(50.1863°N, 11.0141°E)
Time: 10:16:24
(UTC+00:00)

USA 238 - Pass Details

Date: 18 January 2020
Orbit: 1023 x 1189 km, 63.4° (Epoch: 10 February)

Event Time Altitude Azimuth Distance (km) Brightness Sun altitude
Exits shadow 04:29:59 34° 322° (NW) 1,776 4.5 -24.6°
Maximum altitude 04:33:29 80° 46° (NE) 1,164 3.8 -24.0°
Drops below altitude 10° 04:40:54 10° 133° (SE) 3,081 6.8 -22.9°
Sets 04:43:39 0° 135° (SE) 4,054 7.5 -22.4°
